Greenville/Spartanburg, SC

1:02 AM EDT on May 24, 2017 (GMT -0400)
Greenville-Spartanburg International

Weather History for KGSP - November, 2012

Change the Weather History Date:

Thursday, November 1, 2012

  Actual Average Record
Temperature  
Mean Temperature 50 °F 57 °F  
Max Temperature 64 °F 68 °F 86 °F (1961)
Min Temperature 35 °F 46 °F 25 °F (1930)
Degree Days  
Heating Degree Days 15 9  
Month to date heating degree days 15 9  
Since 1 July heating degree days 167 179  
Cooling Degree Days 0 0  
Month to date cooling degree days 0 0  
Year to date cooling degree days 1822 1710  
Moisture  
Dew Point 24 °F    
Average Humidity 42    
Maximum Humidity 64    
Minimum Humidity 19    
Precipitation  
Precipitation 0.00 in 0.11 in 1.65 in (1985)
Month to date precipitation 0.00 0.11  
Year to date precipitation 32.15 39.49  
Snow  
Snow 0.00 in 0.00 in T in (2014)
Month to date snowfall 0.0 0.0  
Since 1 July snowfall T 0.0  
Since 1 September snowfall 0.0 0.0  
Snow Depth 0.00 in    
Sea Level Pressure  
Sea Level Pressure 29.84 in    
Wind  
Wind Speed 5 mph (West)    
Max Wind Speed 13 mph    
Max Gust Speed 20 mph    
Visibility 10 miles    
Events      
T = Trace of Precipitation, MM = Missing Value Source: NWS Daily Summary

Daily Weather History Graph

Daily Weather History Graph

Search for Another Location

Airport or City:

Trip Planner

Search our weather history database for the weather conditions in past years. The results will help you decide how hot, cold, wet, or windy it might be!

Date:

Astronomy

Nov. 01, 2012 Rise Set
Actual Time 7:50 AM EDT 6:34 PM EDT
Civil Twilight 7:23 AM EDT 7:00 PM EDT
Nautical Twilight 6:54 AM EDT 7:30 PM EDT
Astronomical Twilight 6:24 AM EDT 7:59 PM EDT
Moon 8:35 PM EDT (11/1) 10:16 AM EDT (11/1)
Length of Visible Light 11h 36m
Length of Day
10h 44m
Waning Gibbous, 93% of the Moon is Illuminated
Nov 1
Waning Gibbous
Nov 6
Last Quarter
Nov 13
New
Nov 20
First Quarter
Nov 28
Full

Hourly Weather History & Observations

Time (EDT) Temp. Windchill Dew Point Humidity Pressure Visibility Wind Dir Wind Speed Gust Speed Precip Events Conditions
12:53 AM 48.9 °F - 21.0 °F 33% 29.79 in 10.0 mi West 5.8 mph - N/A   Clear
1:53 AM 46.4 °F - 19.4 °F 34% 29.80 in 10.0 mi Calm Calm - N/A   Clear
2:53 AM 43.0 °F 40.3 °F 23.0 °F 45% 29.79 in 10.0 mi West 4.6 mph - N/A   Clear
3:53 AM 41.0 °F 39.0 °F 23.0 °F 49% 29.79 in 10.0 mi NW 3.5 mph - N/A   Clear
4:53 AM 42.1 °F 39.2 °F 23.0 °F 47% 29.80 in 10.0 mi NW 4.6 mph - N/A   Clear
5:53 AM 39.0 °F 34.8 °F 25.0 °F 57% 29.81 in 10.0 mi NNW 5.8 mph - N/A   Clear
6:53 AM 37.0 °F - 26.1 °F 65% 29.83 in 10.0 mi Calm Calm - N/A   Clear
7:53 AM 37.0 °F - 25.0 °F 62% 29.85 in 10.0 mi Calm Calm - N/A   Clear
8:53 AM 39.9 °F 36.7 °F 28.0 °F 63% 29.86 in 10.0 mi NNW 4.6 mph - N/A   Clear
9:53 AM 48.2 °F - 30.2 °F 50% 29.87 in 10.0 mi North 8.1 mph - N/A   Clear
10:53 AM 51.1 °F - 27.0 °F 39% 29.88 in 10.0 mi Variable 3.5 mph - N/A   Clear
11:53 AM 54.0 °F - 28.0 °F 37% 29.88 in 10.0 mi Variable 4.6 mph - N/A   Clear
12:53 PM 55.9 °F - 26.1 °F 32% 29.86 in 10.0 mi SW 6.9 mph - N/A   Clear
1:53 PM 57.2 °F - 24.8 °F 29% 29.83 in 10.0 mi WSW 9.2 mph - N/A   Clear
2:53 PM 62.1 °F - 25.0 °F 24% 29.81 in 10.0 mi WSW 10.4 mph 16.1 mph N/A   Clear
3:53 PM 64.0 °F - 21.9 °F 20% 29.80 in 10.0 mi Variable 5.8 mph - N/A   Clear
4:53 PM 63.0 °F - 19.9 °F 19% 29.79 in 10.0 mi South 3.5 mph - N/A   Clear
5:53 PM 61.0 °F - 21.9 °F 22% 29.81 in 10.0 mi Calm Calm - N/A   Clear
6:53 PM 53.1 °F - 28.9 °F 40% 29.84 in 10.0 mi NNE 8.1 mph - N/A   Clear
7:53 PM 50.0 °F - 27.0 °F 41% 29.87 in 10.0 mi WSW 8.1 mph - N/A   Clear
8:53 PM 48.9 °F - 21.0 °F 33% 29.89 in 10.0 mi NNW 3.5 mph - N/A   Clear
9:53 PM 43.0 °F 41.3 °F 27.0 °F 53% 29.90 in 10.0 mi South 3.5 mph - N/A   Clear
10:53 PM 43.0 °F 40.3 °F 25.0 °F 49% 29.90 in 10.0 mi WSW 4.6 mph - N/A   Clear
11:53 PM 44.1 °F 40.8 °F 23.0 °F 43% 29.90 in 10.0 mi West 5.8 mph - N/A   Clear